Content
SEND FEEDBACK

Daily
Averages
Monthly
Summary
United States of America

ST. LOUIS, MISSOURI


Home > North America > United States > Missouri
Elevation: 535 feet     Latitude: 38 45N     Longitude: 090 22W

WEATHER
 
SELECT A DAY
Number of Records: 199,638;   Date Range: 1/1/95 - 10/20/14
 
SHARE

PRINT THIS DATA

[ ← Previous Day ]
WEATHER ALMANAC - JANUARY 1, 2013
[ Next Day → ]
[ °C ]   °F
Weather ElementAverageHighLow
Temperature23.8 °F30.2 °F (12:15 am)12 °F (11:54 pm)
Dewpoint17.6 °F26.6 °F (12:15 am)9 °F (11:54 pm)
Humidity77.7 %89 % (12:54 am)63 % (2:54 pm)
Barometer30.22 in30.31 in (9:54 pm)30.12 in (12:15 am)
Wind Speed6.3 mph10.4 mph (12:15 am)
Weather ElementAverage
Visibility8.3 mi
Wind DirectionWSW (241.7 °)

Weather ElementTotal
Precipitation---
Heating Degree Days43.9 (Base 65)
Averaged from 35 records on January 1, 2013
WEATHER CONDITIONS BREAKOUT
WIND DIRECTION BREAKOUT
WEATHER BY HOUR - JANUARY 1, 2013
[ °C ]   °F
Local TimeTemperatureDewpointHumidityBarometerVisibilityWind DirectionWind SpeedGust SpeedPrecipitationEventsConditions
12:15 AM30.2 °F26.6 °F86 %30.12 in3.0 miNorth (350°)10.4 mph0.00 inSnowLight Snow
12:54 AM28.9 °F26.1 °F89 %30.15 in4.0 miNorth (360°)6.9 mph0.00 inSnowLight Snow
1:27 AM28.4 °F24.8 °F86 %30.13 in2.5 miNorth (360°)5.8 mph0.00 inSnowLight Snow
1:34 AM28.4 °F24.8 °F86 %30.13 in5.0 miNNE (20°)9.2 mph0.00 inOvercast
1:42 AM28.4 °F23.0 °F80 %30.13 in9.0 miNNE (20°)9.2 mph0.00 inOvercast
1:54 AM28.0 °F23.0 °F81 %30.17 in8.0 miNorth (10°)8.1 mph0.00 inOvercast
2:07 AM26.6 °F23.0 °F86 %30.15 in7.0 miNNW (340°)8.1 mphOvercast
2:54 AM27.0 °F21.9 °F81 %30.18 in7.0 miNorth (350°)6.9 mphOvercast
3:38 AM26.6 °F21.2 °F80 %30.15 in7.0 miNorth (360°)6.9 mphOvercast
3:45 AM26.6 °F21.2 °F80 %30.15 in7.0 miNorth (360°)6.9 mphOvercast
3:54 AM26.1 °F21.0 °F81 %30.18 in7.0 miNorth (10°)6.9 mphOvercast
4:17 AM24.8 °F21.2 °F86 %30.16 in8.0 miNorth (350°)8.1 mphOvercast
4:33 AM24.8 °F19.4 °F80 %30.16 in8.0 miNorth (360°)5.8 mphOvercast
4:54 AM25.0 °F19.9 °F81 %30.19 in8.0 miNorth (10°)6.9 mphOvercast
5:54 AM24.1 °F18.0 °F77 %30.18 in10.0 miNorth (10°)6.9 mphOvercast
6:54 AM23.0 °F17.1 °F78 %30.23 in10.0 miNorth (10°)5.8 mphScattered Clouds
7:24 AM21.2 °F15.8 °F80 %30.21 in10.0 miNorth (10°)10.4 mphOvercast
7:54 AM21.9 °F16.0 °F78 %30.27 in10.0 miNorth (360°)4.6 mphOvercast
8:54 AM23.0 °F16.0 °F74 %30.27 in10.0 miNorth (350°)6.9 mphOvercast
9:54 AM21.9 °F16.0 °F78 %30.27 in10.0 miNorth (350°)9.2 mphOvercast
10:54 AM23.0 °F16.0 °F74 %30.27 in8.0 miNorth (350°)8.1 mphMostly Cloudy
11:08 AM24.8 °F15.8 °F69 %30.24 in9.0 miNorth (350°)6.9 mphMostly Cloudy
11:54 AM25.0 °F17.1 °F72 %30.27 in9.0 miNorth (350°)6.9 mphMostly Cloudy
12:54 PM25.0 °F16.0 °F69 %30.24 in10.0 miNNW (340°)5.8 mphOvercast
1:54 PM25.0 °F16.0 °F69 %30.24 in10.0 miNNW (330°)8.1 mphOvercast
2:54 PM26.1 °F15.1 °F63 %30.25 in10.0 miNNW (340°)6.9 mphOvercast
3:54 PM26.1 °F15.1 °F63 %30.26 in10.0 miNW (320°)3.5 mphMostly Cloudy
4:54 PM25.0 °F14.0 °F63 %30.27 in10.0 miNorth (350°)4.6 mphScattered Clouds
5:54 PM23.0 °F12.9 °F65 %30.28 in10.0 miNNW (340°)3.5 mphMostly Cloudy
6:54 PM18.0 °F10.9 °F74 %30.29 in10.0 miWest (280°)3.5 mphPartly Cloudy
7:54 PM19.0 °F12.0 °F74 %30.29 in10.0 miCalmPartly Cloudy
8:54 PM15.1 °F10.0 °F80 %30.29 in9.0 miWest (270°)3.5 mphClear
9:54 PM15.1 °F10.9 °F84 %30.31 in9.0 miCalmClear
10:54 PM15.1 °F10.9 °F84 %30.31 in9.0 miWSW (250°)3.5 mphClear
11:54 PM12.0 °F9.0 °F88 %30.30 in7.0 miWSW (240°)4.6 mphClear
Hourly data recorded from KSUS, located miles away from St. Louis, Missouri







STORIES FROM OUR PARTNERS